DMSP 5D-2 F11 DEB

Satellite information

Favourite Embed

Satellite Type and Status

DEBRISIN ORBIT

Key statistics

Satellite DMSP 5D-2 F11 DEB at a glance.

Uptime

12214

Days in orbit

Revolutions

≈ 14.6

Per day

Orbit

SSO

Sun Synchronous Orbit

Inclination

98.5

Latest

Satellite identification and parameters

Extended collection of information and parameters for DMSP 5D-2 F11 DEB.

Object identification

Identified? True

Debris? True

Object name: DMSP 5D-2 F11 DEB

International designator: 1991-082BH

Object number (NORAD): 28344

Object ID (CCSDS): 28344

Country: UNITED STATES OF AMERICA (US)

Current information (Y/N): Y

RCS size: SMALL

Orbital parameters

Period: 98.464 minutes

Inclination: 98.5302 deg

SMA: 7063.349 km

Apoapsis: 690.896 km

Periapsis: 679.532 km

RAAN: 205.1974 deg

Eccentricy: 0.0008044

Argument of periapsis: 167.6314 deg

Mean anomaly: 315.4818 deg

Mean motion: 14.62469273 rev/day

Mean motion (dot): 0.00016032 rev/day2

B* drag term: 0.0031664 1/REarth

Two-line elements (TLE)

Creation date: May 7, 2025, 3:14 a.m.

Reference frame: TEME

Reference center: EARTH

Epoch: May 6, 2025, 12:45 a.m. UTC

TLE line 0: 0 DMSP 5D-2 F11 DEB

TLE line 1: 1 28344U 91082BH 25126.03151856 .00016032 00000-0 31664-2 0 9990

TLE line 2: 2 28344 98.5302 205.1974 0008044 167.6314 315.4818 14.62469273623175

Live tracking on map

Real-time ground track for satellite DMSP 5D-2 F11 DEB.

In-orbit conjunctions

A list of the most updated potential collisions computed for object DMSP 5D-2 F11 DEB.

Target Orbit TCA Probability of collision Miss distance Type
THORAD AGENA D DEB LEO 2024-11-11 09:19:05 0.008674344 95.0 (m) DEBRIS
CZ-4 DEB SSO 2024-11-11 08:23:42 0.0002035562 491.0 (m) DEBRIS
COSMOS 1900 DEB LEO 2024-11-10 04:30:37 0.0004117728 886.0 (m) DEBRIS

Associated space launch

Military meteorological satellite

DMSP 5D-2 F11 DEB was lifted into orbit during the mission ‘Atlas E | DMSP-5D2 F11’, on board a Atlas E space rocket.

The launch took place on Nov. 28, 1991, 1:23 p.m. from Space Launch Complex 3W.

For more information about the launch, click the button.

Launch to space Atlas E | DMSP-5D2 F11
Atlas E | DMSP-5D2 F11

Agency: N/A

Status: Launch Successful

Launch date: Nov. 28, 1991, 1:23 p.m. UTC

Rocket: Atlas E

Launch pad: Space Launch Complex 3W

Location: Vandenberg SFB, CA, USA

...

Latest news about this satellite

There are no fresh news available about this satellite. Check back as we update our databases every day.


Newsletter sign-up

Weekly statistics, charts and insights to help you stay on top of the space industry.